Tracking 30995 objects as of 5-Jul-2025
HD Live streaming from Space Station
objects crossing your sky now

SL-8 R/B

Track SL-8 R/B now!
10-day predictions


NORAD ID: 6993
Int'l Code: 1973-104J
Perigee: 1,481.9 km
Apogee: 1,628.3 km
Inclination: 74.0 °
Period: 117.0 minutes
Semi major axis: 7926 km
RCS: 6.4131 m2 (large)
Launch date: December 19, 1973
Source: Commonwealth of Independent States (former USSR) (CIS)
Launch site: PLESETSK MISSILE AND SPACE COMPLEX (PKMTR)

Note: This is a ROCKET BODY
Your satellite tracking list
STARLINK-4281
Track 1 satellite(s)




NASA's NSSDC Master Catalog

Two Line Element Set (TLE):
1 06993U 73104J   25186.63240521 -.00000019  00000-0 -30873-4 0  9994
2 06993  74.0330 263.1227 0092350 346.9071 121.3409 12.30299256314858
Source of the keplerian elements: AFSPC